Total_Precipitation_Accumulation
1.23 1.11 1.05 1.22 1.20 1.24 1.28 1.35 1.37 1.25 1.14 1.03 0.98 0.90 0.93 0.88 0.84 0.82 1.03 1.14 1.40 1.85 2.07 2.06 2.00 1.78 1.66 1.57 1.61 1.65 1.69 1.65 1.86 2.29 2.96 3.25 2.93 2.30 1.86 1.56 1.41 1.26 1.31
1.12 1.12 0.99 1.04 1.13 1.27 1.47 1.54 1.40 1.33 1.27 1.21 1.20 1.12 1.07 0.99 0.94 0.84 0.97 1.03 0.97 1.17 1.57 2.04 2.27 2.09 1.90 1.75 1.67 1.68 1.68 1.63 1.74 2.00 2.16 2.35 2.43 2.11 1.66 1.44 1.35 1.20 1.32
0.97 1.07 1.08 1.04 1.07 1.28 1.52 1.68 1.57 1.46 1.32 1.31 1.30 1.27 1.16 1.12 1.05 0.96 1.04 1.16 0.99 0.92 1.20 1.72 2.17 2.28 2.15 2.04 1.87 1.79 1.68 1.59 1.63 1.76 1.91 1.90 2.00 1.94 1.65 1.46 1.34 1.28 1.28
0.98 1.10 1.15 1.09 1.09 1.29 1.53 1.75 1.80 1.76 1.66 1.58 1.49 1.40 1.33 1.40 1.24 1.13 1.13 1.22 1.32 1.15 1.11 1.33 1.68 1.99 2.21 2.27 2.03 1.78 1.63 1.53 1.51 1.52 1.64 1.53 1.61 1.69 1.52 1.36 1.36 1.39 1.40
1.02 1.14 1.30 1.32 1.32 1.43 1.53 1.58 1.70 1.71 1.74 1.74 1.55 1.51 1.42 1.49 1.51 1.37 1.42 1.44 1.48 1.45 1.30 1.14 1.25 1.38 1.75 2.14 2.15 1.94 1.78 1.63 1.51 1.44 1.53 1.39 1.36 1.44 1.31 1.28 1.34 1.39 1.38
1.24 1.20 1.31 1.33 1.39 1.57 1.63 1.74 1.95 1.88 1.77 1.86 1.69 1.59 1.53 1.50 1.49 1.57 1.63 1.61 1.58 1.49 1.48 1.30 1.34 1.21 1.30 1.59 1.81 1.90 1.84 1.84 1.78 1.62 1.59 1.44 1.26 1.26 1.27 1.20 1.20 1.25 1.30
1.34 1.35 1.37 1.37 1.42 1.51 1.55 1.72 2.09 2.11 1.92 1.82 2.01 1.98 1.87 1.66 1.58 1.60 1.62 1.71 1.73 1.59 1.58 1.60 1.49 1.30 1.11 1.09 1.22 1.55 1.69 1.94 2.05 1.89 1.78 1.57 1.28 1.26 1.31 1.14 1.17 1.22 1.18
1.31 1.24 1.40 1.49 1.47 1.60 1.67 1.82 2.11 2.32 2.09 1.90 2.25 2.68 2.44 2.16 1.82 1.60 1.59 1.51 1.61 1.63 1.54 1.42 1.35 1.28 1.16 1.13 0.91 1.09 1.38 1.84 2.24 2.12 1.86 1.70 1.46 1.33 1.33 1.20 1.18 1.21 1.20
1.55 1.49 1.58 1.70 1.62 1.68 1.77 1.81 1.89 2.33 2.46 2.22 2.18 2.75 2.63 2.42 2.34 1.85 1.48 1.33 1.51 1.64 1.64 1.50 1.40 1.41 1.34 1.28 1.08 0.90 1.06 1.44 1.99 2.11 1.93 1.87 1.73 1.55 1.38 1.29 1.24 1.23 1.32
1.77 1.66 1.67 1.72 1.72 1.79 1.77 1.64 1.79 2.21 2.66 2.68 2.46 2.26 2.14 2.11 2.30 2.19 1.64 1.36 1.43 1.55 1.70 1.58 1.51 1.52 1.50 1.49 1.40 1.11 0.91 1.03 1.54 2.07 2.23 2.20 2.07 1.87 1.66 1.53 1.43 1.40 1.38
1.78 1.64 1.58 1.65 1.72 1.80 1.79 1.84 2.03 2.32 2.60 2.84 2.78 2.52 2.24 2.01 1.68 1.87 1.86 1.65 1.43 1.35 1.40 1.48 1.58 1.57 1.53 1.48 1.54 1.35 0.98 0.84 1.11 1.67 2.16 2.30 2.21 2.14 2.06 1.95 1.87 1.85 1.71
1.63 1.57 1.54 1.53 1.50 1.57 1.67 1.85 2.10 2.23 2.42 2.65 2.71 2.45 2.27 2.13 1.94 1.81 1.67 1.73 1.70 1.42 1.28 1.24 1.34 1.47 1.48 1.46 1.31 1.38 1.16 0.89 0.85 1.02 1.37 1.80 1.99 2.12 2.18 2.20 2.13 2.03 2.02
1.42 1.42 1.43 1.39 1.31 1.29 1.42 1.62 1.86 1.91 2.02 2.25 2.36 2.25 2.12 1.95 1.91 1.95 1.91 1.82 1.69 1.43 1.28 1.10 1.16 1.29 1.29 1.35 1.40 1.41 1.19 1.05 0.86 0.82 0.88 1.06 1.36 1.73 2.06 2.26 2.31 2.26 2.21
1.24 1.16 1.18 1.20 1.19 1.18 1.22 1.35 1.50 1.54 1.63 1.85 1.92 1.96 1.85 1.79 1.83 1.83 1.87 2.00 1.87 1.63 1.30 0.99 1.01 1.14 1.09 1.14 1.35 1.38 1.03 0.99 0.90 0.82 0.77 0.77 0.85 1.10 1.50 1.75 1.97 2.18 2.22
1.02 0.97 1.02 1.12 1.19 1.13 1.09 1.18 1.30 1.33 1.44 1.60 1.73 1.87 1.79 1.73 1.74 1.80 1.87 1.93 1.94 1.81 1.54 1.12 0.98 0.92 0.94 1.02 1.31 1.16 1.01 1.01 0.90 0.83 0.75 0.67 0.63 0.66 0.82 1.01 1.26 1.48 1.62
0.93 0.92 0.94 0.95 0.97 0.98 1.02 1.16 1.29 1.35 1.37 1.44 1.52 1.64 1.76 1.79 1.82 1.82 1.87 1.88 1.83 1.80 1.69 1.30 1.04 0.87 0.93 0.92 1.14 0.95 1.05 1.21 1.00 0.82 0.73 0.67 0.63 0.62 0.62 0.71 0.79 0.85 0.89
0.73 0.74 0.71 0.74 0.87 0.89 0.89 1.03 1.11 1.12 1.24 1.33 1.33 1.36 1.52 1.65 1.77 1.81 1.81 1.80 1.85 1.79 1.67 1.45 1.14 0.95 1.03 1.05 1.12 0.98 0.97 1.02 0.93 0.89 0.80 0.71 0.63 0.61 0.59 0.62 0.62 0.59 0.60
0.49 0.55 0.58 0.58 0.77 0.94 0.96 1.00 1.01 0.99 1.09 1.18 1.21 1.27 1.33 1.34 1.44 1.58 1.69 1.68 1.76 1.80 1.75 1.64 1.35 1.12 1.09 1.15 1.30 1.31 1.21 1.13 1.10 1.19 1.13 0.94 0.78 0.70 0.66 0.64 0.62 0.57 0.53
0.40 0.43 0.55 0.54 0.60 0.76 0.88 0.89 0.87 0.90 0.94 1.01 1.05 1.11 1.14 1.20 1.30 1.33 1.41 1.50 1.58 1.64 1.73 1.66 1.56 1.43 1.26 1.20 1.27 1.26 1.32 1.47 1.42 1.40 1.44 1.26 1.03 0.87 0.78 0.74 0.69 0.64 0.58
0.44 0.40 0.40 0.42 0.48 0.58 0.71 0.73 0.73 0.76 0.79 0.81 0.93 1.01 1.05 1.08 1.16 1.22 1.23 1.35 1.47 1.57 1.60 1.57 1.51 1.44 1.38 1.35 1.36 1.33 1.39 1.53 1.60 1.51 1.47 1.38 1.29 1.16 1.00 0.89 0.77 0.71 0.67
0.27 0.29 0.26 0.28 0.32 0.40 0.46 0.48 0.56 0.64 0.71 0.75 0.85 0.87 0.90 0.85 0.88 0.95 0.95 1.12 1.28 1.47 1.54 1.57 1.48 1.37 1.32 1.34 1.32 1.34 1.40 1.57 1.60 1.66 1.66 1.53 1.39 1.21 1.09 0.99 0.87 0.80 0.76
0.14 0.19 0.20 0.23 0.26 0.28 0.34 0.34 0.38 0.50 0.61 0.67 0.74 0.77 0.83 0.85 0.80 0.76 0.75 0.82 0.96 1.09 1.27 1.40 1.43 1.35 1.28 1.26 1.34 1.45 1.46 1.55 1.65 1.59 1.51 1.59 1.51 1.40 1.23 1.04 1.04 1.01 0.91
0.12 0.13 0.16 0.22 0.23 0.20 0.22 0.21 0.31 0.52 0.57 0.58 0.56 0.69 0.80 0.86 0.88 0.91 0.80 0.78 0.79 0.83 0.92 1.10 1.23 1.24 1.22 1.24 1.30 1.40 1.47 1.51 1.43 1.48 1.44 1.52 1.53 1.41 1.24 1.18 1.22 1.09 1.01
0.11 0.15 0.17 0.23 0.20 0.14 0.14 0.17 0.25 0.42 0.50 0.48 0.49 0.60 0.75 0.86 0.89 0.91 0.87 0.93 0.91 0.80 0.77 0.84 1.03 1.11 1.11 1.24 1.37 1.48 1.59 1.58 1.52 1.51 1.44 1.46 1.41 1.28 1.18 1.16 1.25 1.12 1.02
0.11 0.14 0.18 0.18 0.15 0.11 0.11 0.15 0.24 0.41 0.48 0.48 0.46 0.54 0.69 0.78 0.87 0.89 0.87 0.98 0.98 0.80 0.72 0.82 0.87 0.93 1.01 1.14 1.33 1.47 1.55 1.56 1.54 1.51 1.36 1.23 1.18 1.23 1.24 1.17 1.14 1.14 1.02
0.12 0.12 0.15 0.15 0.13 0.14 0.14 0.13 0.20 0.30 0.39 0.47 0.48 0.53 0.71 0.76 0.78 0.75 0.79 1.00 1.09 0.95 0.72 0.70 0.77 0.89 0.97 1.11 1.33 1.47 1.69 1.70 1.50 1.46 1.35 1.21 1.20 1.29 1.42 1.32 1.14 1.04 0.97